Location: Paris
(48.6709°N, 2.3750°E)
Time: 23:49:36
(UTC+02:00)

QB50P2 - Pass Details

Date: 05 July 2022
Orbit: 590 x 605 km, 97.9° (Epoch: 07 August)

Event Time Altitude Azimuth Distance (km) Brightness Sun altitude
Rises 04:22:44 0° 3° (N) 2,863 ? -11.3°
Reaches altitude 10° 04:25:11 10° 351° (N) 1,957 ? -11.1°
Maximum altitude 04:28:40 25° 296° (WNW) 1,232 ? -10.7°
Enters shadow 04:31:50 11° 243° (WSW) 1,856 ? -10.4°
